This demonstration page uses our WeatherBlox Daily Observations layout. Learn more.

Left ArrowRight Arrow

39.92423, -83.80882

Hourly Observations for March 15, 2017

Temp ( °F °C ) Dew Point ( °F °C ) Humidity (%) Winds ( mph kmh ) Pressure ( in mb ) Visibility ( mi km ) Precip ( " mm )
12:56 am 00:56 Mostly Cloudy 12 -11.1 5 -15 73 73 W 7 11 30.22 1023 10 16.0934 0 0
1:56 am 01:56 Clear 11 -11.7 6 -14.4 81 81 W 8 13 30.21 1023 10 16.0934 0 0
2:56 am 02:56 Clear 14 -10 10 -12.2 84 84 WNW 12 19 30.21 1023 10 16.0934 0 0
3:56 am 03:56 Clear 15 -9.4 9 -12.8 77 77 NW 12 19 30.2 1023 10 16.0934 0 0
4:56 am 04:56 Clear 13 -10.6 7 -13.9 77 77 WNW 12 19 30.21 1023 10 16.0934 0 0
5:56 am 05:56 Clear 13 -10.6 6 -14.4 74 74 WNW 10 17 30.23 1024 10 16.0934 0 0
6:56 am 06:56 Clear 13 -10.6 5 -15 70 70 WNW 13 20 30.23 1024 10 16.0934 0 0
7:56 am 07:56 Sunny 13 -10.6 6 -14.4 74 74 WNW 14 22 30.25 1024 10 16.0934 0 0
8:56 am 08:56 Sunny 18 -7.8 8 -13.3 65 65 WNW 15 24 30.26 1025 10 16.0934 0 0
9:56 am 09:56 Sunny 22 -5.6 10 -12.2 60 60 WNW 17 28 30.27 1025 10 16.0934 0 0
10:56 am 10:56 Sunny 24 -4.4 8 -13.3 50 50 NW 22 35 30.28 1025 10 16.0934 0 0
11:56 am 11:56 Mostly Sunny 26 -3.3 10 -12.2 51 51 NNW 21 33 30.29 1026 10 16.0934 0 0
12:56 pm 12:56 Mostly Cloudy 28 -2.2 12 -11.1 51 51 NW 22 35 30.29 1026 10 16.0934 0 0
1:56 pm 13:56 Cloudy 29 -1.7 12 -11.1 49 49 NW 17 28 30.28 1026 10 16.0934 0 0
2:56 pm 14:56 Cloudy 29 -1.7 12 -11.1 49 49 NW 18 30 30.27 1025 10 16.0934 0 0
3:56 pm 15:56 Cloudy 31 -0.6 15 -9.4 52 52 WNW 20 31 30.26 1025 10 16.0934 0 0.0254
4:56 pm 16:56 Cloudy 30 -1.1 14 -10 51 51 WNW 18 30 30.27 1025 10 16.0934 0 0.0254
5:56 pm 17:56 Cloudy with Light Snow 28 -2.2 17 -8.3 63 63 WNW 18 30 30.29 1026 8 12.87472 0 0.0254
6:56 pm 18:56 Cloudy with Light Snow 28 -2.2 17 -8.3 63 63 NW 10 17 30.29 1026 9 14.48406 0 0.0254
7:56 pm 19:56 Cloudy 27 -2.8 17 -8.3 66 66 WNW 12 19 30.3 1026 10 16.0934 0 0.0254
8:56 pm 20:56 Cloudy with Light Snow 26 -3.3 17 -8.3 69 69 W 15 24 30.31 1026 9 14.48406 0 0.0254
9:56 pm 21:56 Cloudy 25 -3.9 17 -8.3 72 72 WNW 15 24 30.32 1027 10 16.0934 0 0.0254
10:56 pm 22:56 Cloudy with Light Snow 25 -3.9 17 -8.3 72 72 NW 14 22 30.32 1027 9 14.48406 0 0.0254
11:56 pm 23:56 Mostly Cloudy 25 -3.9 16 -8.9 69 69 WNW 10 17 30.32 1027 10 16.0934 0 0.0254

Powered by AerisWeather